Hourly Data Report for October 09, 2016

All times are specified in Local Standard Time (LST). Add 1 hour to adjust for Daylight Saving Time where and when it is observed.

RESOLUTE BAY A
NUNAVUT

74°43'01.000" N
94°58'10.000" W
67.70 m
2403498
71924
YRB

Download Data

Hourly Data (October 2016)
Hourly Data Report for October 9, 2016
Temp Definition
°C
Dew Point Temp Definition
°C
Rel Hum Definition
%
Wind Dir Definition
10's deg

Wind Spd Definition
km/h
Visibility Definition
km
Stn Press Definition
kPa
Hmdx Definition


Wind Chill Definition


Weather Definition


TIME
00:00
01:00 Legend Double Dagger -11.5 -13.5 85 32 28 9.7 100.07   -21 Snow
02:00 Legend Double Dagger -11.0 -12.8 87 32 30 4.8 100.05   -21 Snow
03:00 Legend Double Dagger -10.6 -12.2 88 32 31 4.8 100.02   -20 Snow,Blowing Snow
04:00 Legend Double Dagger -10.2 -12.1 86 36 23 8.1 100.03   -19 Snow
05:00 Legend Double Dagger -10.6 -12.4 87 35 21 14.5 100.08   -19 Snow
06:00 Legend Double Dagger -11.1 -12.9 87 34 17 14.5 100.10   -19 Snow
07:00 Legend Double Dagger -11.1 -13.2 85 2 18 24.1 100.12   -19 LegendNANA
08:00 Legend Double Dagger -11.0 -12.3 90 35 13 16.1 100.11   -17 Snow
09:00 Legend Double Dagger -10.7 -12.3 88 35 12 24.1 100.09   -17 Snow
10:00 Legend Double Dagger -10.7 -12.5 87 36 9 24.1 100.09   -16 Snow
11:00 Legend Double Dagger -11.2 -13.1 86 8 7 24.1 100.10   -15 Snow
12:00 Legend Double Dagger -11.1 -13.2 85 14 8 24.1 100.12   -16 Snow
13:00 Legend Double Dagger -10.4 -12.6 84 10 10 24.1 100.15   -16 Snow
14:00 Legend Double Dagger -9.8 -11.9 85 17 10 24.1 100.19   -15 Snow
15:00 Legend Double Dagger -9.6 -11.7 85 16 3 24.1 100.21   -11 Snow
16:00 Legend Double Dagger -9.6 -11.7 85 36 1 24.1 100.21   -10 Snow
17:00 Legend Double Dagger -9.4 -11.5 85 36 3 24.1 100.22   -11 Snow
18:00 Legend Double Dagger -9.2 -11.1 86 25 5 24.1 100.23   -12 Snow
19:00 Legend Double Dagger -9.0 -10.9 86 36 8 24.1 100.24   -13 LegendNANA
20:00 Legend Double Dagger -8.9 -10.5 88 31 4 24.1 100.23   -11 Snow
21:00 Legend Double Dagger -8.4 -10.0 88 33 4 24.1 100.22   -11 Cloudy
22:00 Legend Double Dagger -8.2 -10.0 87 36 3 24.1 100.20   -10 LegendNANA
23:00 Legend Double Dagger -8.4 -10.3 86 36 2 24.1 100.19   -9 Snow Showers

Notes on Data Quality.

Legend

  • E = Estimated
  • M = Missing
  • NA = Not Available
  • ‡ = Partner data that is not subject to review by the National Climate Archives
Date modified: